Location: Azul
(36.7830°S, 59.8500°W)
Time: 19:32:54
(UTC-03:00)

ISS - Visible Passes

Search period start: 23 May 2018 00:00
Search period end: 02 June 2018 00:00
Orbit: 402 x 407 km, 51.6° (Epoch: 24 May)

Date Brightness Start Highest point End Pass type
(mag) Time Alt. Az. Time Alt. Az. Time Alt. Az.
25 May -0.6 06:51:21 10° N 06:53:30 16° NE 06:55:40 10° E visible
27 May -2.5 06:42:11 10° NNW 06:45:19 43° NE 06:48:30 10° ESE visible
28 May -1.4 05:52:22 19° NNE 05:53:14 21° NE 05:55:48 10° E visible
28 May -3.1 07:26:28 10° WNW 07:29:33 34° SW 07:32:40 10° SSE visible
29 May -3.9 06:36:15 41° WNW 06:37:14 67° SW 06:40:35 10° SE visible
30 May -1.4 05:47:00 21° ESE 05:47:00 21° ESE 05:48:18 10° ESE visible
30 May -2.1 07:19:43 12° WSW 07:21:44 18° SSW 07:24:09 10° SSE visible
31 May -2.3 06:30:10 25° S 06:30:10 25° S 06:32:15 10° SSE visible
01 Jun -1.5 07:13:07 10° SW 07:14:01 11° SSW 07:15:06 10° S visible
